CUBEBUG-2 (LO-74)

Last updated on Mon Sep 21 2026 00:03:14 GMT+0000 (Coordinated Universal Time)

1 39440U 13066AA 26263.43316356 .00002169 00000+0 20087-3 0 9993 2 39440 97.8991 212.8916 0058599 71.8259 288.9329 14.94296492691212
UTC large
Height (km)
Speed (km/s)
/
Latitude / Longitude
Inclination (degrees)
Orbital Period (minutes)
Azimuth
Elevation
Range (km)
Doppler Factor

Next 0 passes for location: London (51.5072 / 0.1276)

No passes found over London.
CUBEBUG-2 (LO-74)